カタログに戻る

STARLINK-5220

運用中通信VLEO
NORAD 54760·PAYLOAD·🇺🇸 United States

打ち上げ Dec 17, 2022 から Cape Canaveral Space Force Station

Loading…

次のパス (今後24時間)

TLE

最新Source: CelesTrak SupGP

元期: Sep 14, 2026, 20:56 UTC

1 54760C 22175C   26257.87270833  .00041372  00000+0  11834-2 0  2571
2 54760  53.1589 270.8247 0001245  89.6531  56.5709 15.35384663    16

AllMySatでSTARLINK-5220をリアルタイム追跡

Download on the App Store